[[{"header":{"parameterUnit":"m.s-1","parameterCategory":1,"la1":30.2991,"la2":30.254,"lo1":-89.0895,"lo2":-89.0444,"dy":0.0017,"dx":0.0017,"nx":28,"ny":28,"refTime":"2023-09-12T09:00:00:Z","depth":0,"parameterNumber":2,"parameterNumberName":"U-component_of_WINDS"},"data":[0,0,0,0,0,0,0,0,0,0,0,0,0,0,0,0,0,0,0,0,0,0,0,0,0,0,0,0,0,0,0,0,0,0,0,0,0,0,0,0,0,0,0,0,0,0,0,0,0,0,0,0,0,0,0,0,0,0,0.0145,0.0145,0,0.0164,0.0164,0.0164,0.0155,0.0155,0.0154,0.0154,0.0172,0.0173,0.0174,0,0,0,0,0,0,0,0,0,0,0,0,0,0.01,0.0101,0.0145,0.0145,0.0145,0.0164,0.0164,0.0164,0.0155,0.0155,0.0154,0.0153,0.0172,0.0173,0.0174,0,0,0,0,0,0,0,0,0,0,0,0,0,0.0119,0.0101,0.0145,0.0143,0.0143,0.0164,0.0164,0.0164,0.0155,0.0155,0.0154,0.0153,0.0171,0.0173,0.0174,0.0197,0,0,0.0178,0.0179,0,0,0,0,0,0,0,0,0.0118,0.0121,0.0143,0.0143,0.0143,0.0156,0.0155,0.0175,0.0155,0.0151,0.0154,0.0153,0.0167,0.0169,0.0174,0.0198,0.0199,0.0179,0.0179,0.018,0.018,0,0,0,0,0,0,0,0.0117,0.012,0.0152,0.0143,0.0144,0.0141,0.0143,0.0159,0.0163,0.0151,0.015,0.0153,0.0167,0.0173,0.0174,0.0199,0.0178,0.018,0.0181,0.0181,0.0242,0.0243,0,0,0,0,0,0,0.0116,0.0119,0.0152,0.0153,0.0129,0.0142,0.0145,0.0153,0.0163,0.0163,0.0153,0.0152,0.0171,0.0173,0.0175,0.0202,0.018,0.0181,0.0182,0.0241,0.0242,0.0243,0,0,0,0,0,0,0.0115,0.0119,0.0151,0.0136,0.014,0.0144,0.0153,0.0154,0.0159,0.0164,0.0165,0.0158,0.017,0.0173,0.0192,0.0203,0.0182,0.0183,0.024,0.0242,0.0243,0.0257,0,0,0,0,0,0,0.0113,0.0118,0.0128,0.0136,0.0141,0.0168,0.0154,0.0155,0.0162,0.016,0.0169,0.017,0.017,0.019,0.0193,0.0204,0.0184,0.0239,0.0241,0.0242,0.0255,0.0258,0.0261,0,0,0,0,0,0.0112,0.0131,0.0128,0.0132,0.0152,0.0168,0.0171,0.0171,0.0163,0.0172,0.0175,0.017,0.0201,0.0192,0.0195,0.0207,0.0239,0.024,0.0242,0.0254,0.0258,0.0261,0,0,0,0,0,0,0.0123,0.0132,0.0129,0.0151,0.0159,0.0167,0.0178,0.0175,0.0185,0.0183,0.0182,0.0184,0.0203,0.0207,0.0196,0.0229,0.0218,0.0221,0.0226,0.023,0.0232,0.0231,0.0185,0,0,0,0,0,0.0128,0.0141,0.0148,0.0167,0.0171,0.0174,0.0181,0.018,0.0188,0.0191,0.0196,0.0204,0.0215,0.0223,0.0234,0.0256,0.0257,0.0266,0.0268,0.0271,0.0273,0.0284,0.0288,0.0249,0.0249,0.0249,0,0,0.0139,0.0145,0.0153,0.0169,0.0175,0.0188,0.0177,0.0191,0.02,0.0193,0.0211,0.0215,0.0223,0.0243,0.0253,0.0247,0.0284,0.0273,0.0275,0.0275,0.0286,0.029,0.0293,0.025,0.025,0.0249,0,0,0.0165,0.0171,0.0187,0.0193,0.0203,0.0205,0.0208,0.0217,0.0219,0.0236,0.0231,0.0242,0.0262,0.0268,0.0274,0.0302,0.0297,0.0305,0.0319,0.033,0.0333,0.0336,0.0345,0.0348,0.0307,0.0307,0.0307,0,0.0177,0.0196,0.0196,0.021,0.0217,0.0212,0.0228,0.0234,0.0246,0.025,0.0244,0.0269,0.0274,0.0295,0.0302,0.0307,0.0311,0.0304,0.0333,0.0335,0.0338,0.0347,0.035,0.0308,0.0308,0.0308,0.0308,0,0.021,0.0223,0.0235,0.0247,0.0255,0.027,0.0272,0.028,0.0279,0.0281,0.0298,0.0305,0.0317,0.0322,0.032,0.0342,0.0339,0.0333,0.0322,0.0343,0.0351,0.0354,0.0309,0.0309,0.0309,0.0309,0,0,0.0243,0.0255,0.0259,0.0264,0.0274,0.0284,0.0298,0.031,0.0317,0.0325,0.0337,0.0354,0.0348,0.0355,0.0354,0.0364,0.0384,0.0356,0.0357,0.0361,0.0408,0.0412,0.0416,0.0381,0.0382,0.0382,0.0407,0,0.0268,0.0294,0.0294,0.0318,0.033,0.0325,0.0338,0.0345,0.0347,0.0357,0.036,0.0371,0.0364,0.0367,0.0377,0.038,0.0393,0.0378,0.0392,0.0392,0.0389,0.042,0.0425,0.0448,0.041,0.0411,0.0411,0,0.0302,0.0312,0.0336,0.0344,0.0349,0.036,0.0371,0.0381,0.0388,0.0389,0.0396,0.0394,0.0408,0.0397,0.0416,0.0406,0.0411,0.0414,0.0414,0.0415,0.0402,0.0421,0.0455,0.0458,0.0416,0.0416,0.0416,0,0.0322,0.0342,0.0359,0.0364,0.0373,0.0381,0.0385,0.0392,0.0399,0.0408,0.0412,0.0423,0.0428,0.0436,0.0437,0.0429,0.0456,0.0445,0.0456,0.0456,0.0462,0.0461,0.0496,0.0467,0.0467,0.0467,0.0467,0,0.0351,0.0366,0.0368,0.0379,0.0395,0.0395,0.0411,0.0415,0.0421,0.0432,0.0428,0.0438,0.0438,0.0448,0.0449,0.0464,0.0467,0.0468,0.0467,0.0468,0.0467,0.0471,0.0469,0.0468,0.0467,0.0467,0.0467,0,0.0376,0.0379,0.0397,0.0404,0.0406,0.0418,0.0424,0.0434,0.0436,0.0449,0.0453,0.0456,0.0467,0.0469,0.0482,0.0482,0.0501,0.0499,0.0498,0.0498,0.0509,0.0508,0.0547,0.0552,0.0519,0.052,0.052,0,0.0394,0.0405,0.0414,0.0421,0.0426,0.0437,0.0444,0.0444,0.0451,0.0461,0.0469,0.0481,0.0489,0.0508,0.0511,0.0522,0.052,0.0533,0.0521,0.0521,0.0519,0.0518,0.0519,0.0535,0.0535,0.0535,0.0536,0,0.0424,0.0425,0.0435,0.0446,0.0454,0.0462,0.047,0.0476,0.0477,0.0486,0.0497,0.0504,0.0518,0.0529,0.0539,0.0543,0.0539,0.0539,0.0542,0.0542,0.0541,0.0541,0.0504,0.0538,0.0538,0.0538,0.0538,0.0538,0.0446,0.0455,0.0463,0.0474,0.048,0.0488,0.0497,0.05,0.051,0.0522,0.0521,0.0534,0.0541,0.0554,0.0559,0.0568,0.0564,0.0569,0.057,0.0571,0.0571,0.054,0.057,0.057,0.057,0.057,0.057,0,0.0475,0.048,0.049,0.0501,0.051,0.0507,0.0515,0.0522,0.0534,0.0541,0.055,0.0563,0.0574,0.0578,0.0588,0.0595,0.0594,0.0598,0.0597,0.0598,0.0575,0.0571,0.0599,0.0599,0.0599,0.0599,0.0599,0.0599,0.0491,0.0508,0.0509,0.0528,0.0532,0.0545,0.055,0.0557,0.0562,0.0577,0.0586,0.0589,0.0595,0.0605,0.0615,0.0615,0.0619,0.0624,0.0624,0.0602,0.0599,0.0597,0.0593,0.0625,0.0625,0.0646,0.0646,0.0646]},{"header":{"parameterUnit":"m.s-1","parameterCategory":1,"la1":30.2991,"la2":30.254,"lo1":-89.0895,"lo2":-89.0444,"dy":0.0017,"dx":0.0017,"nx":28,"ny":28,"refTime":"2023-09-12T09:00:00:Z","depth":0,"parameterNumber":3,"parameterNumberName":"V-component_of_WINDS"},"data":[0,0,0,0,0,0,0,0,0,0,0,0,0,0,0,0,0,0,0,0,0,0,0,0,0,0,0,0,0,0,0,0,0,0,0,0,0,0,0,0,0,0,0,0,0,0,0,0,0,0,0,0,0,0,0,0,0,0,3.2863,3.2863,0,3.2903,3.2904,3.2904,3.2853,3.2851,3.2849,3.2847,3.2885,3.2888,3.2891,0,0,0,0,0,0,0,0,0,0,0,0,0,3.2737,3.274,3.2863,3.2863,3.2864,3.2903,3.2904,3.2904,3.2853,3.2851,3.2849,3.2846,3.2884,3.2888,3.2891,0,0,0,0,0,0,0,0,0,0,0,0,0,3.2786,3.2741,3.2863,3.2843,3.2842,3.2903,3.2904,3.2904,3.2854,3.2851,3.2848,3.2845,3.2883,3.2887,3.2891,3.2973,0,0,3.2904,3.2906,0,0,0,0,0,0,0,0,3.2783,3.2791,3.2845,3.2845,3.2843,3.287,3.2873,3.2927,3.2854,3.2849,3.2847,3.2844,3.2882,3.2886,3.29,3.2975,3.2976,3.2904,3.2907,3.2909,3.291,0,0,0,0,0,0,0,3.278,3.2789,3.2879,3.2846,3.2845,3.2831,3.2835,3.2883,3.2881,3.2849,3.2846,3.2851,3.2881,3.2896,3.29,3.2977,3.2904,3.2908,3.2911,3.2912,3.3117,3.312,0,0,0,0,0,0,3.2779,3.2786,3.2877,3.288,3.2806,3.2835,3.284,3.2864,3.288,3.288,3.2854,3.2849,3.289,3.2896,3.2902,3.2995,3.2909,3.2913,3.2915,3.3114,3.3118,3.3121,0,0,0,0,0,0,3.2777,3.2788,3.2876,3.2832,3.2842,3.2841,3.2868,3.2866,3.2881,3.2883,3.2882,3.287,3.2888,3.2896,3.2955,3.2996,3.2914,3.2918,3.3111,3.3115,3.3119,3.3186,0,0,0,0,0,0,3.2774,3.2787,3.2819,3.2833,3.2845,3.293,3.2871,3.2869,3.2889,3.2883,3.2898,3.2898,3.2887,3.2949,3.2959,3.3,3.2921,3.3107,3.3113,3.3118,3.318,3.3192,3.3202,0,0,0,0,0,3.2769,3.2836,3.2821,3.2833,3.2885,3.2932,3.2939,3.2926,3.2893,3.2924,3.2925,3.2897,3.2991,3.2956,3.2966,3.301,3.3104,3.3111,3.3118,3.3175,3.3189,3.3202,0,0,0,0,0,0,3.2827,3.2838,3.2821,3.2895,3.2913,3.2924,3.2963,3.2942,3.2969,3.2962,3.2944,3.2947,3.301,3.3016,3.2977,3.3088,3.3042,3.3051,3.3081,3.3095,3.3106,3.3102,3.2925,0,0,0,0,0,3.2848,3.2887,3.2894,3.2959,3.2969,3.2964,3.2985,3.2973,3.299,3.2997,3.3003,3.302,3.3053,3.3075,3.3105,3.3181,3.3182,3.3216,3.3227,3.3236,3.3243,3.3281,3.3295,3.3143,3.3143,3.3143,0,0,3.2892,3.2903,3.2929,3.297,3.2983,3.3022,3.2971,3.3015,3.3043,3.3004,3.3059,3.3064,3.3082,3.3149,3.3179,3.3156,3.3286,3.3245,3.3252,3.3254,3.329,3.3304,3.3317,3.3148,3.3147,3.3146,0,0,3.2992,3.3006,3.306,3.3073,3.3093,3.309,3.3103,3.3116,3.3118,3.3174,3.3145,3.3178,3.3235,3.3248,3.3263,3.3367,3.3341,3.3377,3.3435,3.3472,3.3484,3.3494,3.3529,3.3542,3.3385,3.3385,3.3385,0,3.3044,3.3103,3.309,3.3135,3.3153,3.3121,3.3173,3.3187,3.3216,3.3228,3.3203,3.3273,3.3283,3.3351,3.3377,3.339,3.3403,3.3374,3.3484,3.3494,3.3503,3.3536,3.3549,3.3389,3.3389,3.3388,3.3388,0,3.3165,3.3206,3.3247,3.3275,3.3298,3.3348,3.334,3.3364,3.3351,3.3349,3.3406,3.3416,3.3447,3.3463,3.345,3.3529,3.3514,3.3487,3.3439,3.3522,3.3552,3.3565,3.3395,3.3394,3.3392,3.3391,0,0,3.3301,3.3321,3.3336,3.3348,3.3367,3.3398,3.3445,3.3476,3.3496,3.3517,3.3554,3.3604,3.3578,3.3594,3.3582,3.3615,3.3694,3.3583,3.3583,3.3601,3.3778,3.3797,3.3812,3.3678,3.3681,3.3682,3.3776,0,3.3399,3.3481,3.3469,3.3547,3.3584,3.3553,3.3593,3.3609,3.3609,3.3638,3.3638,3.3672,3.3637,3.3646,3.3677,3.3678,3.3728,3.3671,3.371,3.3712,3.3704,3.3828,3.3849,3.3936,3.3788,3.379,3.3791,0,3.3524,3.3549,3.3631,3.3643,3.3658,3.3695,3.3721,3.3751,3.3767,3.3764,3.3782,3.3764,3.3809,3.3763,3.3823,3.3784,3.38,3.3802,3.3805,3.3806,3.3755,3.383,3.3964,3.3976,3.381,3.3809,3.3807,0,3.3612,3.3667,3.3722,3.3733,3.3749,3.3775,3.3783,3.3797,3.3815,3.3838,3.385,3.3878,3.3893,3.3914,3.3903,3.3871,3.3965,3.3918,3.3962,3.3962,3.3981,3.3979,3.4117,3.3996,3.3995,3.3995,3.3995,0,3.3721,3.3771,3.3761,3.3795,3.385,3.3836,3.389,3.3894,3.3906,3.3939,3.3915,3.3945,3.3931,3.396,3.3952,3.4002,3.4009,3.4007,3.4004,3.4008,3.4008,3.4016,3.4008,3.3999,3.3998,3.3997,3.3997,0,3.3827,3.3823,3.388,3.3891,3.3895,3.3935,3.3943,3.3973,3.3972,3.4013,3.4022,3.4019,3.4052,3.4044,3.4081,3.4075,3.4137,3.4127,3.4131,3.4128,3.4171,3.4166,3.4316,3.4334,3.4204,3.4205,3.4206,0,3.3896,3.3934,3.3948,3.3968,3.3978,3.4012,3.4031,3.4018,3.4039,3.4059,3.4087,3.4118,3.4142,3.4197,3.4197,3.4224,3.4213,3.4264,3.4217,3.4219,3.421,3.4207,3.421,3.4272,3.4274,3.4275,3.4276,0,3.4017,3.4012,3.4041,3.4069,3.4093,3.4114,3.4132,3.415,3.4139,3.4163,3.4197,3.4216,3.4253,3.4283,3.4308,3.4314,3.4293,3.4291,3.4302,3.4305,3.4305,3.4303,3.4154,3.4287,3.4286,3.4285,3.4285,3.4284,3.4104,3.4136,3.415,3.4183,3.4196,3.4213,3.4242,3.4244,3.4272,3.4302,3.4293,3.4331,3.4344,3.4375,3.4385,3.4413,3.4394,3.441,3.4414,3.4418,3.4422,3.4303,3.4418,3.4418,3.4417,3.4417,3.4417,0,3.4222,3.423,3.426,3.4286,3.4311,3.4291,3.431,3.4331,3.4365,3.438,3.4405,3.4442,3.4472,3.4474,3.4501,3.4523,3.4514,3.4531,3.4527,3.4529,3.4439,3.4425,3.4538,3.4538,3.4538,3.4538,3.4537,3.4537,3.4286,3.4337,3.4334,3.4391,3.4398,3.4436,3.4448,3.4464,3.4475,3.4519,3.4543,3.4545,3.4554,3.4581,3.4607,3.4606,3.4616,3.4636,3.4632,3.4547,3.4535,3.4524,3.4511,3.4639,3.4639,3.4719,3.472,3.472]}]]